This demonstration page uses our WeatherBlox Daily Observations layout. Learn more.

Left ArrowRight Arrow

39.08367, -84.50855

Hourly Observations for May 9, 2019

Temp ( °F °C ) Dew Point ( °F °C ) Humidity (%) Winds ( mph kmh ) Pressure ( in mb ) Visibility ( mi km ) Precip ( " mm )
12:53 am 00:53 Partly Cloudy 64 17.8 61 16.1 90 90 S 3 6 29.90 1013 10 16 N/A
1:53 am 01:53 Clear 62 16.7 60 15.6 93 93 S 3 6 29.90 1013 10 16 N/A
2:53 am 02:53 Clear 61 16.1 58 14.4 90 90 SW 5 7 29.88 1012 10 16 N/A
3:53 am 03:53 Clear 63 17.2 59 15 87 87 WSW 5 7 29.88 1012 10 16 N/A
4:53 am 04:53 Clear 65 18.3 59 15 81 81 SW 3 6 29.86 1011 10 16 N/A
5:53 am 05:53 Clear 67 19.4 60 15.6 79 79 S 7 11 29.85 1011 10 16 N/A
6:53 am 06:53 Sunny 69 20.6 60 15.6 73 73 S 7 11 29.85 1011 10 16 N/A
7:53 am 07:53 Sunny 71 21.7 60 15.6 68 68 S 13 20 29.85 1011 10 16 N/A
8:53 am 08:53 Cloudy with Light Rain 69 20.6 62 16.7 78 78 S 14 22 29.85 1011 10 16 N/A
9:53 am 09:53 Mostly Cloudy 72 22.2 63 17.2 73 73 S 15 24 29.84 1011 10 16 N/A
10:53 am 10:53 Cloudy 74 23.3 65 18.3 74 74 SSW 15 24 29.84 1011 10 16 N/A
11:53 am 11:53 Mostly Cloudy 78 25.6 65 18.3 64 64 SSW 17 28 29.86 1011 10 16 N/A
12:53 pm 12:53 Mostly Cloudy with Light Rain 76 24.4 64 17.8 67 67 SSW 20 31 29.86 1011 10 16 N/A
1:44 pm 13:44 Cloudy with Heavy Rain 71 21.7 66 18.9 84 84 SSW 28 44 29.88 1012 1 1 0.22 5.59
1:53 pm 13:53 Mostly Cloudy with Light Rain 70 21.1 69 20.6 97 97 SSW 15 24 29.88 1012 1 2 0.25 6.35
2:01 pm 14:01 Mostly Cloudy 72 22.2 68 20 87 87 S 13 20 29.87 1012 10 16 N/A
2:53 pm 14:53 Mostly Cloudy 76 24.4 68 20 77 77 SSW 12 19 29.87 1011 10 16 N/A
3:53 pm 15:53 Cloudy with Light Rain 69 20.6 66 18.9 90 90 S 13 20 29.88 1012 7 11 0.01 0.25
4:53 pm 16:53 Mostly Cloudy 70 21.1 66 18.9 87 87 S 14 22 29.88 1012 10 16 N/A
5:53 pm 17:53 Cloudy with Light Rain 69 20.6 66 18.9 90 90 SSW 12 19 29.88 1012 10 16 0.03 0.76
6:53 pm 18:53 Cloudy with Light Rain 68 20 65 18.3 90 90 S 12 19 29.88 1012 10 16 0.01 0.25
7:53 pm 19:53 Cloudy 67 19.4 65 18.3 93 93 S 7 11 29.88 1012 10 16 N/A
8:53 pm 20:53 Cloudy 67 19.4 64 17.8 91 91 S 7 11 29.88 1012 10 16 N/A
9:48 pm 21:48 Cloudy 66 19 64 18 94 94 SSW 8 13 29.88 1012 10 16 N/A
9:53 pm 21:53 Mostly Cloudy with Light Rain 66 18.9 64 17.8 93 93 S 7 11 29.88 1012 8 13 N/A
10:22 pm 22:22 Cloudy with Light Rain 66 18.9 64 17.8 93 93 S 7 11 29.89 1012 10 16 0.03 0.76
10:30 pm 22:30 Cloudy with Light Rain 66 18.9 64 17.8 93 93 SSW 6 9 29.89 1012 10 16 0.03 0.76
10:53 pm 22:53 Cloudy 66 18.9 64 17.8 93 93 SSW 8 13 29.89 1012 10 16 0.03 0.76
11:13 pm 23:13 Mostly Cloudy 65 18.3 64 17.8 97 97 S 6 9 29.89 1012 10 16 N/A
11:29 pm 23:29 Mostly Cloudy 64 17.8 63 17.2 96 96 SW 5 7 29.89 1012 10 16 N/A
11:53 pm 23:53 Mostly Cloudy 64 17.8 63 17.2 96 96 WSW 5 7 29.90 1012 10 16 N/A

Powered by AerisWeather